{"data":{"norad_id":64537,"epoch":"2026-09-18T14:00:46.510560Z","epoch_age_seconds":347106,"freshness":"STALE","line1":"1 64537U 25135K   26261.58387165  .00000290  00000+0  15112-4 0  9995","line2":"2 64537  97.4797  16.7241 0002841 177.8084 182.3166 15.23560166 69097","mean_motion":15.23560166,"eccentricity":0.0002841,"inclination_deg":97.4797,"raan_deg":16.7241,"arg_perigee_deg":177.8084,"mean_anomaly_deg":182.3166,"bstar":1.5112e-5,"rev_number":6909,"period_min":94.515466611379,"perigee_km":493.15969271651,"apogee_km":497.06507301585,"semimajor_km":6873.2493828662,"source":"CELESTRAK","updated_at":"2026-09-22T09:00:29.840420Z"}}